Find Starlink 32821

NORAD ID: 63078 Int'l Des: 2025-037 Owner: SPXS Country: US Constellation: starlink operational
LEOCIRCULAR

当前视图

正在加载3D地球...

About Starlink 32821

Starlink 32821 (NORAD 63078) is a starlink constellation satellite (v2 mini) launched Feb 23, 2025 by SPXS of US. It operates in LEO, CIRCULAR orbit with a mass of 730.00 kg.

即将过境

Passes for default location (London). Set your location on the main map for personalized predictions.

高度历史

Loading altitude history...

两行轨道根数

1 63078U 25037B 26264.26109003 .00019627 00000-0 68514-3 0 9994
2 63078 70.0002 219.0834 0002964 274.0154 86.0683 15.29593716 87932
Epoch: Sep 21, 2026 • Age: 8 hours

当前状态

高度 490.5 km
远地点 / 近地点 N/A
速度 7.63 km/s
星下点 69.83°N, 99.69°E
发射日期 Feb 23, 2025
运行时间 1.5 years
类型 internet

技术详情

分类 Payload
质量 730.00 kg
干质量 700.00 kg
长度 0.30 m
跨度 29.00 m
形状 ? Box + pan
制造商 SPXS
平台类型 Starlink V2M
阶段状态 In Orbit
所有者/国家 SPXS/US

Most Searched